Regional Weather Roundup
Issued by NWS

Home | Current Version | Previous Version | Graphics & Text | Print | Product List | Glossary On
Versions: 1 2 3 4 5 6 7 8 9 10 11 12 13 14 15 16 17 18 19 20 21 22 23 24 25 26 27 28 29 30 31 32 33 34 35 36 37 38 39 40 41 42 43 44 45 46 47 48 49 50
000
ASUS43 KLMK 302110
RWRKY
KENTUCKY REGIONAL WEATHER ROUNDUP
NATIONAL WEATHER SERVICE LOUISVILLE KY
500 PM EDT SAT MAY 30 2015

NOTE "FAIR" INDICATES FEW OR NO CLOUDS BELOW 12,000 FEET
WITH NO SIGNIFICANT WEATHER AND/OR OBSTRUCTIONS TO VISIBILITY.

KYZ001>023-026-027-061>063-070>075-302200-
WESTERN AND SOUTH CENTRAL KENTUCKY

CITY           SKY/WX    TMP DP  RH WIND       PRES   REMARKS
PADUCAH        CLOUDY    72  68  87 S14G21    29.90F
HENDERSON      PTSUNNY   75  68  78 SW7       29.90S
OWENSBORO      MOSUNNY   86  67  52 S25       29.93F
HOPKINSVILLE   PTSUNNY   81  67  61 S14G24    29.97S
BOWLING GREEN  MOSUNNY   84  65  52 S17G29    30.00F
GLASGOW        LGT RAIN  78  67  69 S9        30.03S
$$

KYZ024-025-028>034-038-045-046-053-302200-
NORTH CENTRAL KENTUCKY

CITY           SKY/WX    TMP DP  RH WIND       PRES   REMARKS
LOUISVILLE/SDF PTSUNNY   80  71  74 SE10      29.97S
LOUISVILLE/LOU PTSUNNY   74  69  85 SE5       29.98S HAZE
FORT KNOX      LGT RAIN  77  68  73 S13G20    29.97F
$$

KYZ035>037-039>044-047>052-055>060-089>105-302200-
NORTHEAST KENTUCKY

CITY           SKY/WX    TMP DP  RH WIND       PRES   REMARKS
LEXINGTON      MOSUNNY   84  67  56 S13G23    30.02F
COVINGTON      PTSUNNY   81  71  71 SW6       29.98F
FRANKFORT      MOSUNNY   84  61  45 S15G25    29.99F
$$

KYZ054-064>069-076>088-106>120-302200-
SOUTHEAST KENTUCKY

CITY           SKY/WX    TMP DP  RH WIND       PRES   REMARKS
JACKSON        MOSUNNY   83  59  44 VRB3      30.07F
LONDON         MOSUNNY   84  55  36 S10       30.06F
SOMERSET       SUNNY     82  59  44 S12       30.06F
MIDDLESBORO    MOSUNNY   85  59  41 S7        30.08F
MONTICELLO     CLEAR     85  63  47 S14G22    30.07F
$$



USA.gov is the U.S. government's official web portal to all federal, state and local government web resources and services.